SWA1057 KOAK-PHOG

Flight info

Callsign SWA1057
Flight time N/A
Altitude 38000
Route OAK6 OAK DCT CINNY DCT ALANN DCT GITLE DCT DIALO R576 DUSAC/N0446F400 R576 DENNS LNDHY1
Aircraft B738/M-SDE2E3FGHIRWXY/LB1

Departure

Time N/A
Airport San Francisco Bay Oakland International Airport (KOAK)

Arrival

Time 2026-05-07 17:49
Airport Kahului International Airport (PHOG)
Time Latitude Longitude Altitude Speed Heading
2026-05-07 17:27 21.02911 -156.30087 7000 ft 244 kts 338°
2026-05-07 17:28 21.04576 -156.30352 6990 ft 245 kts
2026-05-07 17:28 21.06166 -156.29741 7004 ft 245 kts 30°
2026-05-07 17:28 21.07582 -156.28722 6999 ft 246 kts 35°
2026-05-07 17:28 21.08974 -156.27645 6990 ft 247 kts 35°
2026-05-07 17:29 21.10373 -156.26571 6984 ft 248 kts 35°
2026-05-07 17:29 21.11779 -156.25498 6982 ft 248 kts 37°
2026-05-07 17:29 21.12874 -156.24098 6980 ft 248 kts 68°
2026-05-07 17:29 21.13111 -156.22293 6988 ft 248 kts 98°
2026-05-07 17:30 21.12474 -156.20597 6993 ft 248 kts 127°
2026-05-07 17:30 21.11136 -156.19460 6992 ft 249 kts 158°
2026-05-07 17:30 21.09445 -156.19203 6989 ft 249 kts 189°
2026-05-07 17:30 21.07843 -156.19857 7006 ft 248 kts 212°
2026-05-07 17:31 21.06415 -156.20897 6998 ft 249 kts 216°
2026-05-07 17:31 21.05010 -156.21987 6992 ft 250 kts 216°
2026-05-07 17:31 21.03616 -156.23058 6993 ft 250 kts 216°
2026-05-07 17:31 21.02200 -156.24144 6992 ft 251 kts 219°
2026-05-07 17:32 21.01145 -156.25588 6993 ft 248 kts 251°
2026-05-07 17:32 21.00959 -156.27389 7000 ft 246 kts 281°
2026-05-07 17:32 21.01625 -156.29045 7003 ft 244 kts 309°
2026-05-07 17:32 21.02468 -156.29867 7000 ft 244 kts 329°
2026-05-07 17:33 21.04614 -156.30390 6990 ft 244 kts
2026-05-07 17:33 21.06200 -156.29780 7004 ft 244 kts 31°
2026-05-07 17:33 21.07617 -156.28760 6999 ft 246 kts 35°
2026-05-07 17:33 21.09008 -156.27686 6992 ft 247 kts 35°
2026-05-07 17:34 21.10408 -156.26611 6985 ft 248 kts 35°
2026-05-07 17:34 21.11816 -156.25537 6986 ft 249 kts 37°
2026-05-07 17:34 21.12916 -156.24136 6981 ft 248 kts 67°
2026-05-07 17:34 21.13171 -156.22331 6988 ft 248 kts 97°
2026-05-07 17:35 21.12554 -156.20625 6990 ft 248 kts 127°
2026-05-07 17:35 21.11230 -156.19464 6987 ft 249 kts 156°
2026-05-07 17:35 21.09542 -156.19173 6984 ft 248 kts 188°
2026-05-07 17:35 21.07932 -156.19797 7003 ft 248 kts 211°
2026-05-07 17:36 21.06502 -156.20831 6996 ft 249 kts 216°
2026-05-07 17:36 21.05098 -156.21919 6994 ft 250 kts 216°
2026-05-07 17:36 21.03687 -156.23005 6994 ft 250 kts 216°
2026-05-07 17:36 21.02267 -156.24085 6984 ft 251 kts 216°
2026-05-07 17:37 21.00830 -156.25182 6773 ft 256 kts 216°
2026-05-07 17:37 20.99387 -156.26281 6562 ft 254 kts 216°
2026-05-07 17:37 20.97953 -156.27372 6323 ft 252 kts 216°
2026-05-07 17:38 20.93766 -156.30549 5678 ft 245 kts 216°
2026-05-07 17:38 20.92378 -156.31601 5474 ft 244 kts 216°
2026-05-07 17:38 20.90996 -156.32647 5270 ft 243 kts 215°
2026-05-07 17:39 20.89618 -156.33690 5074 ft 242 kts 215°
2026-05-07 17:39 20.88254 -156.34711 5023 ft 239 kts 215°
2026-05-07 17:39 20.86897 -156.35715 4947 ft 236 kts 215°
2026-05-07 17:39 20.85555 -156.36706 4888 ft 232 kts 215°
2026-05-07 17:40 20.84233 -156.37683 4854 ft 231 kts 215°
2026-05-07 17:40 20.82907 -156.38663 4801 ft 233 kts 214°
2026-05-07 17:40 20.81572 -156.39651 4777 ft 235 kts 215°
2026-05-07 17:40 20.80223 -156.40648 4725 ft 237 kts 215°
2026-05-07 17:41 20.78862 -156.41654 4670 ft 238 kts 214°
2026-05-07 17:41 20.77506 -156.42655 4627 ft 235 kts 214°
2026-05-07 17:41 20.76169 -156.43644 4565 ft 233 kts 214°
2026-05-07 17:41 20.74843 -156.44629 4527 ft 231 kts 215°
2026-05-07 17:42 20.73526 -156.45610 4480 ft 230 kts 215°
2026-05-07 17:42 20.72213 -156.46587 4430 ft 230 kts 215°
2026-05-07 17:42 20.70915 -156.47551 4341 ft 232 kts 215°
2026-05-07 17:42 20.69576 -156.48547 4134 ft 236 kts 215°
2026-05-07 17:43 20.68457 -156.49784 3894 ft 231 kts 243°
2026-05-07 17:43 20.68130 -156.51402 3647 ft 222 kts 277°
2026-05-07 17:43 20.68683 -156.52875 3399 ft 212 kts 313°
2026-05-07 17:43 20.69871 -156.53682 3166 ft 200 kts 349°
2026-05-07 17:44 20.71223 -156.53685 2978 ft 192 kts
2026-05-07 17:44 20.72528 -156.53512 2799 ft 186 kts
2026-05-07 17:44 20.73812 -156.53329 2635 ft 186 kts
2026-05-07 17:44 20.75094 -156.53142 2498 ft 189 kts
2026-05-07 17:45 20.76390 -156.52901 2415 ft 188 kts 21°
2026-05-07 17:45 20.77434 -156.52155 2407 ft 175 kts 39°
2026-05-07 17:45 20.78446 -156.51458 2411 ft 171 kts 31°
2026-05-07 17:45 20.79421 -156.50758 2319 ft 167 kts 36°
2026-05-07 17:46 20.80372 -156.50032 2084 ft 166 kts 35°
2026-05-07 17:46 20.81284 -156.49350 1885 ft 155 kts 36°
2026-05-07 17:46 20.82138 -156.48709 1700 ft 146 kts 35°
2026-05-07 17:46 20.82946 -156.48105 1478 ft 140 kts 33°
2026-05-07 17:47 20.83719 -156.47525 1326 ft 134 kts 36°
2026-05-07 17:47 20.84491 -156.46943 1174 ft 138 kts 33°
2026-05-07 17:47 20.85276 -156.46357 995 ft 135 kts 34°
2026-05-07 17:47 20.86042 -156.45784 802 ft 135 kts 33°
2026-05-07 17:48 20.86838 -156.45188 644 ft 147 kts 33°
2026-05-07 17:48 20.87671 -156.44564 392 ft 143 kts 36°
2026-05-07 17:48 20.88482 -156.43958 203 ft 138 kts 34°
2026-05-07 17:48 20.89260 -156.43378 49 ft 132 kts 34°
2026-05-07 17:49 20.89873 -156.42918 43 ft 61 kts 35°
2026-05-07 17:49 20.90137 -156.42724 43 ft 36 kts 37°
2026-05-07 17:49 20.90269 -156.42644 41 ft 8 kts 313°
2026-05-07 17:49 20.90251 -156.42695 43 ft 8 kts 243°
2026-05-07 17:50 20.90217 -156.42764 42 ft 14 kts 242°
2026-05-07 17:50 20.90153 -156.42870 43 ft 19 kts 220°
2026-05-07 17:50 20.90042 -156.42954 43 ft 19 kts 215°
2026-05-07 17:50 20.89935 -156.43034 43 ft 19 kts 214°
2026-05-07 17:51 20.89829 -156.43112 44 ft 19 kts 214°
2026-05-07 17:51 20.89707 -156.43203 44 ft 24 kts 215°
2026-05-07 17:51 20.89564 -156.43309 43 ft 26 kts 215°
2026-05-07 17:51 20.89422 -156.43416 42 ft 24 kts 214°
2026-05-07 17:52 20.89290 -156.43513 42 ft 22 kts 214°
2026-05-07 17:52 20.89199 -156.43591 44 ft 9 kts 247°
2026-05-07 17:52 20.89226 -156.43653 44 ft 10 kts 309°
2026-05-07 17:52 20.89256 -156.43696 42 ft 3 kts 305°
2026-05-07 17:53 20.89258 -156.43699 42 ft 0 kts 305°